{"data":{"norad_id":60596,"epoch":"2026-05-25T04:40:32.159424Z","epoch_age_seconds":61235,"freshness":"FRESH","line1":"1 60596U 24150P   26145.19481666  .00001344  00000+0  50927-4 0  9995","line2":"2 60596  53.1622 311.0284 0001259  81.3867 278.7278 15.34394503 99686","mean_motion":15.34394503,"eccentricity":0.0001259,"inclination_deg":53.1622,"raan_deg":311.0284,"arg_perigee_deg":81.3867,"mean_anomaly_deg":278.7278,"bstar":5.0927e-5,"rev_number":9968,"period_min":93.848094292866,"perigee_km":461.85831465509,"apogee_km":463.58084234155,"semimajor_km":6840.8565784983,"source":"CELESTRAK","updated_at":"2026-05-25T13:38:19.281162Z"}}